GEFSSE_500_meanwind_288.txt.gz
Wind_Speed
6 6 6 6 5 5 5 6 6 7 7 7 7 7 8 8 10 10 10 10 11 10 10 10 10 10 10 10 10 9 9 8 8 8 7 7 6 6 6 5 4 4 3
7 6 6 6 5 5 5 5 6 6 6 6 5 6 7 8 9 9 9 10 10 10 10 9 9 9 10 9 9 8 8 8 7 6 6 5 5 4 4 4 3 3 3
7 7 6 6 5 5 4 4 5 5 6 5 5 6 7 7 8 8 9 10 10 9 9 9 8 9 9 9 9 8 7 7 6 6 5 5 4 3 3 3 3 2 3
7 7 6 6 5 5 4 4 4 5 5 5 5 6 6 6 7 7 8 8 8 8 8 8 8 8 9 8 8 7 6 6 6 5 4 4 3 3 3 2 2 2 3
7 6 6 6 5 5 4 4 4 5 5 5 5 6 6 6 6 7 7 7 7 7 8 7 6 8 7 6 6 5 5 5 4 4 4 3 3 3 2 2 1 2 2
7 6 6 6 6 5 5 4 4 4 5 5 5 5 5 6 6 7 7 7 7 7 7 7 6 7 6 5 5 4 4 4 3 2 2 2 2 1 1 1 1 1 2
8 7 6 6 6 6 4 4 4 5 5 5 5 5 6 6 6 6 7 6 6 6 6 6 6 6 5 4 4 4 4 3 2 2 2 2 1 1 1 0 0 2 2
8 7 7 7 6 6 5 5 5 5 6 6 6 6 6 6 6 6 6 6 6 6 6 6 5 5 4 3 3 3 3 2 2 2 1 1 1 1 1 1 1 1 2
7 7 8 7 7 6 6 6 6 6 6 6 6 6 6 6 6 5 5 5 6 6 5 5 4 4 3 3 3 3 2 2 1 2 1 0 1 1 1 1 1 1 2
8 8 8 8 7 7 7 7 6 7 6 6 6 6 6 6 5 5 5 5 5 5 5 5 5 3 3 3 2 2 2 1 1 1 1 1 1 1 1 2 2 2 3
9 8 8 8 8 8 8 8 7 6 6 6 6 6 6 6 5 5 5 4 4 4 4 4 4 3 3 2 1 1 1 1 1 1 1 1 1 1 2 3 3 3 3
9 9 9 9 9 8 8 8 7 6 5 5 5 5 5 5 5 5 4 4 4 3 3 4 3 3 3 2 1 1 0 1 1 1 1 1 1 2 2 3 4 4 3
10 10 10 9 8 8 8 8 7 6 5 5 4 5 5 5 4 5 5 5 4 3 3 3 3 2 3 2 1 1 1 1 1 1 1 1 2 2 3 3 4 4 4
10 10 10 9 9 8 8 7 7 6 6 5 5 5 5 5 4 5 5 4 3 3 3 2 3 3 2 2 1 0 0 0 1 1 2 3 3 4 5 5 5 5 5
10 10 9 9 8 8 7 7 7 7 6 6 5 5 5 4 4 4 3 3 3 2 2 3 2 2 2 1 1 0 0 1 2 2 2 3 4 5 5 6 6 6 6
9 9 9 8 8 8 7 7 7 7 6 6 6 5 5 5 4 3 2 2 3 2 2 1 1 1 1 0 0 0 1 2 2 3 3 4 5 5 5 6 6 6 6
10 11 10 9 8 8 8 7 7 7 7 6 6 6 5 5 4 3 3 2 2 1 1 1 1 2 1 1 1 1 1 2 3 4 5 5 6 6 6 7 7 7 7
9 10 10 9 9 9 9 9 8 7 7 6 6 6 5 5 4 3 3 2 2 1 1 1 1 1 1 2 2 2 3 3 4 5 5 6 6 6 7 7 7 7 8
9 9 9 9 9 9 8 9 8 8 7 6 6 5 5 5 4 4 3 4 4 3 2 2 2 2 2 2 3 3 3 4 5 5 6 7 7 7 7 8 8 8 9
9 9 9 9 9 9 9 8 8 8 7 6 6 6 5 5 5 5 5 5 4 4 3 3 3 2 3 3 3 4 4 5 5 6 6 7 8 8 9 9 9 10 10
9 8 8 9 9 8 8 8 8 9 7 7 6 6 5 5 5 5 5 4 4 4 4 4 3 4 3 4 4 4 4 5 6 6 7 8 8 8 9 9 10 11 11
7 7 8 8 8 8 8 8 8 8 7 6 5 5 4 4 4 5 5 4 4 4 4 4 4 4 5 5 5 5 6 7 7 7 7 8 8 9 9 10 11 11 12
6 6 6 7 7 8 7 7 7 7 7 7 5 5 5 5 6 5 5 4 5 5 5 6 6 6 6 7 7 7 7 8 8 8 8 8 9 9 10 10 10 11 12
5 6 6 6 7 7 7 7 7 7 7 7 7 6 6 6 7 6 5 5 5 5 6 7 7 8 8 8 8 8 8 8 8 9 9 9 10 10 10 11 11 12 13
5 5 6 6 6 7 8 7 7 7 7 8 8 7 7 6 6 6 6 6 6 7 7 7 8 8 9 9 9 9 9 9 9 10 10 10 11 11 12 12 13 13 13
5 5 6 6 6 7 8 8 8 8 7 8 8 8 8 7 7 7 7 7 8 9 9 9 9 9 9 9 10 10 10 10 10 11 11 12 12 13 12 13 13 13 14

GEFSSE_500_meanwind_294.txt.gz
Wind_Speed
9 9 9 8 7 7 7 7 7 7 6 7 7 8 9 10 11 12 11 12 12 13 13 13 12 12 12 12 12 11 11 12 11 10 9 8 8 8 7 6 6 5 5
9 9 8 7 7 7 6 7 7 7 7 7 7 8 9 10 10 11 11 11 11 12 12 12 12 12 12 12 11 10 10 10 10 9 8 7 8 7 7 6 5 5 5
10 10 9 8 7 7 6 6 6 6 6 7 8 8 8 9 10 11 11 11 11 12 12 12 11 11 11 11 10 9 9 9 9 8 7 7 6 6 6 5 5 5 5
11 10 9 8 7 7 6 5 5 6 6 7 8 8 8 9 9 10 11 11 10 10 11 11 10 10 10 10 9 9 8 8 8 7 6 6 6 6 5 4 5 6 5
11 10 9 9 8 7 6 6 6 6 7 7 7 7 8 8 9 9 10 10 10 10 10 9 9 9 10 10 9 8 8 8 7 6 6 5 5 4 4 4 4 5 5
10 10 9 8 7 7 6 6 6 6 7 7 7 7 7 8 8 9 9 9 9 9 9 8 8 8 8 8 8 7 7 6 6 6 5 4 4 4 3 3 4 4 4
10 9 9 8 7 7 6 6 6 7 7 7 7 7 7 7 7 7 8 8 8 8 8 8 7 6 7 7 7 6 6 5 4 4 4 3 3 3 3 3 3 3 4
10 10 9 8 8 7 7 7 7 7 7 7 7 7 7 7 7 6 6 7 7 8 7 7 6 5 6 5 5 5 5 4 4 4 4 3 2 2 2 2 3 3 4
11 10 10 9 8 7 7 7 7 7 7 7 7 6 7 7 8 7 6 7 7 7 7 6 5 6 6 5 5 5 4 4 3 3 3 2 1 2 2 2 3 3 4
12 11 10 9 8 8 8 8 7 7 7 7 6 6 6 7 7 7 6 6 7 7 6 6 6 6 6 5 5 4 4 3 3 3 2 2 2 2 2 2 2 3 3
11 11 11 10 9 8 8 7 7 7 7 7 6 6 7 7 6 6 6 5 5 5 5 5 5 5 5 5 5 4 3 2 3 2 2 2 2 2 2 2 2 2 3
11 11 11 10 10 9 9 8 8 8 7 7 7 7 7 6 6 5 5 5 4 4 4 5 5 5 5 4 4 4 3 3 3 2 1 1 2 2 2 2 2 2 3
11 11 11 10 9 9 9 9 8 8 7 7 7 7 6 6 5 5 5 4 4 4 5 5 5 5 5 4 4 4 3 2 2 2 2 2 2 2 3 3 3 3 4
11 11 11 11 10 10 10 9 9 8 8 7 7 7 6 6 6 5 4 4 4 4 5 6 5 5 4 3 3 3 2 2 1 1 2 2 2 3 3 3 4 5 5
11 12 12 11 11 10 11 10 9 9 8 8 7 7 7 7 6 5 4 5 4 4 4 4 4 4 3 3 3 2 2 2 2 3 3 3 4 4 4 5 5 5 6
12 12 12 12 11 11 11 10 10 9 8 8 7 7 7 7 6 5 5 4 4 4 4 4 3 3 2 2 3 3 2 2 3 3 4 4 4 4 5 5 5 5 6
12 12 12 12 12 11 10 10 10 9 8 8 8 7 7 6 6 6 6 5 5 4 4 4 3 2 1 1 2 2 2 3 4 3 4 5 5 5 5 5 6 6 7
12 12 12 12 12 11 10 10 10 10 9 9 8 8 8 7 6 5 6 5 4 4 4 3 2 2 1 0 1 1 1 2 3 3 4 5 5 6 6 6 7 8 8
12 12 12 12 12 11 10 10 9 9 9 8 7 7 7 6 6 5 5 4 4 4 4 3 2 1 1 0 1 1 2 3 3 3 4 5 6 6 6 7 8 8 9
11 11 11 11 11 11 10 10 9 8 8 7 7 7 6 6 5 5 5 4 4 4 3 2 1 1 1 1 1 2 2 3 3 4 4 5 6 6 7 7 8 8 9
10 10 10 10 10 10 10 9 9 8 7 7 6 6 6 6 5 5 4 3 3 2 2 1 1 1 1 2 2 3 3 3 3 4 4 5 5 6 6 7 8 9 9
9 8 9 9 8 8 8 8 9 8 8 7 6 6 6 5 4 4 3 2 2 2 1 1 2 2 2 2 3 4 4 4 3 4 5 6 6 6 7 7 8 9 10
8 7 7 8 7 7 8 8 8 8 7 7 7 5 4 4 4 4 3 2 2 2 2 3 3 4 4 3 3 4 4 4 4 5 6 7 7 8 8 9 9 10 10
7 7 7 7 7 6 6 7 7 6 6 6 6 5 4 4 4 4 4 3 2 3 3 4 4 5 5 5 5 5 5 5 5 6 7 8 8 9 9 9 10 10 10
6 6 6 6 6 5 5 5 6 6 6 7 6 6 5 5 5 4 4 4 4 4 5 5 5 6 6 6 6 6 7 7 6 7 8 9 9 9 10 10 10 10 11
4 5 5 5 6 5 6 6 7 7 7 7 7 7 6 5 5 5 5 5 4 4 5 5 6 6 6 6 6 7 8 7 7 8 8 9 9 10 10 10 11 11 12

GEFSSE_500_meanwind_300.txt.gz
Wind_Speed
7 7 7 7 7 7 7 7 8 7 8 8 8 9 9 9 9 9 10 10 11 11 10 10 10 9 9 9 9 9 10 10 9 9 8 7 7 6 6 5 5 5 5
8 8 8 7 7 7 7 8 8 8 9 9 9 9 9 10 10 11 10 10 10 10 11 10 9 9 8 8 9 9 9 9 9 8 7 7 6 6 5 5 5 5 5
9 9 9 8 8 8 7 8 8 9 10 9 9 10 10 11 11 11 11 10 10 10 10 10 9 8 8 8 8 8 8 8 8 7 6 5 4 5 4 5 5 4 4
8 9 9 8 8 8 8 8 9 9 9 9 9 10 11 11 11 11 10 10 10 10 10 9 9 9 8 7 7 7 7 7 6 6 5 4 4 4 4 4 4 4 4
8 8 9 8 8 8 8 8 9 9 9 10 10 10 11 11 11 10 10 10 9 9 9 8 8 8 8 7 7 6 5 5 5 5 4 3 3 3 3 3 3 4 4
8 8 8 9 8 8 8 8 9 9 9 10 10 9 10 10 10 10 9 9 9 9 8 8 7 7 7 6 6 6 5 5 4 4 3 2 2 1 2 2 3 4 4
8 8 9 8 8 8 8 9 9 9 9 9 9 9 9 9 9 9 9 9 9 8 8 8 7 6 6 6 6 5 4 4 3 3 2 2 1 1 2 2 3 3 4
9 9 9 9 9 9 9 9 9 9 9 9 9 9 9 8 8 8 8 8 8 8 8 7 7 6 6 6 5 4 4 3 2 2 1 1 2 2 2 3 3 3 4
10 10 9 9 9 9 9 9 9 9 9 9 8 8 8 8 7 8 8 8 8 7 7 7 7 6 6 5 5 4 3 2 2 1 1 1 1 1 2 3 3 3 4
9 9 10 10 10 10 10 9 10 10 9 9 9 8 8 7 7 7 7 7 8 7 6 7 7 6 6 5 4 4 3 2 2 2 1 1 1 1 2 2 3 4 4
10 10 10 10 10 9 9 9 10 9 9 8 7 7 7 7 7 7 7 7 7 6 6 5 6 5 5 5 4 3 3 2 2 2 1 1 1 2 2 3 3 4 4
11 11 11 10 10 9 9 9 9 9 8 8 7 7 6 6 6 6 6 6 6 5 5 5 6 5 5 4 4 3 3 2 2 2 1 2 2 2 2 2 3 3 4
12 12 12 11 10 10 9 8 8 8 8 7 7 6 6 6 6 5 6 6 5 5 5 4 5 5 4 4 3 3 2 2 3 3 2 2 3 3 3 4 4 5 5
12 11 12 11 10 10 9 8 8 7 7 6 6 5 5 6 5 5 5 5 6 5 5 4 5 4 4 4 3 3 2 3 3 3 3 3 4 4 4 5 5 5 6
12 11 11 11 10 9 9 8 8 8 7 6 5 5 5 5 4 5 5 5 5 4 4 4 4 4 3 3 3 3 2 3 3 3 3 4 5 5 6 5 5 6 7
12 11 11 11 10 9 9 9 8 8 7 7 6 5 5 5 5 5 5 5 4 3 4 4 4 3 3 3 2 2 2 3 4 4 4 5 5 5 6 7 6 7 7
11 10 10 10 9 9 10 9 8 7 8 7 6 5 5 4 4 4 4 4 3 3 3 3 3 3 2 2 2 2 2 2 3 4 5 6 6 7 7 7 7 8 8
10 10 10 10 10 10 9 9 8 7 7 7 6 5 5 4 4 3 4 3 3 2 2 2 3 3 2 2 2 2 3 3 3 4 5 6 6 7 7 7 8 8 9
10 10 10 10 9 9 9 8 8 7 6 6 5 5 5 4 3 3 2 2 2 2 2 2 3 3 3 3 3 3 3 3 4 5 6 6 7 8 8 9 9 9 9
9 9 9 9 8 8 8 7 7 6 6 5 4 3 3 2 1 1 1 2 2 2 2 3 4 4 4 4 4 4 4 4 4 5 6 7 8 8 9 9 9 10 10
8 8 8 8 8 7 7 6 6 6 5 5 4 4 3 2 1 0 0 2 3 3 3 4 5 5 5 5 4 4 4 4 5 6 6 7 7 8 9 9 10 11 11
7 7 7 7 7 6 6 6 5 5 5 4 3 3 2 2 2 1 1 2 3 3 3 4 5 6 6 6 6 5 6 6 6 7 8 8 8 9 10 10 11 12 12
6 6 6 6 6 5 5 5 5 5 5 4 2 2 1 2 3 2 3 3 3 4 4 5 6 6 7 7 7 6 7 7 7 8 9 9 10 10 10 10 11 12 13
4 4 4 4 4 5 5 4 4 4 4 4 4 2 2 3 4 4 4 4 5 6 6 7 7 7 8 8 8 7 8 8 9 9 9 10 10 11 12 12 13 13 14
2 2 3 2 3 3 4 4 5 5 4 4 4 3 3 4 4 4 5 5 6 6 7 7 7 9 9 9 8 8 9 9 9 10 10 11 11 12 13 13 13 14 14
3 3 3 2 2 3 4 5 5 5 4 5 4 4 4 5 4 4 5 6 7 7 7 7 8 8 9 9 10 10 10 10 11 11 11 12 12 13 13 14 14 15 15

GEFSSE_500_meanwind_306.txt.gz
Wind_Speed
7 6 6 6 7 7 7 8 9 8 8 8 8 9 10 10 10 10 12 12 12 12 11 11 10 10 9 9 8 7 7 8 8 8 7 7 6 5 4 3 3 3 4
7 7 7 6 7 8 8 9 9 9 9 9 9 10 11 11 11 11 12 12 11 12 12 11 11 10 9 9 8 7 7 7 6 7 6 6 5 4 3 3 3 3 3
7 6 7 7 8 8 8 8 9 9 10 10 10 11 11 12 12 12 12 12 12 12 11 11 11 11 10 8 7 7 7 6 6 6 5 4 4 4 3 3 2 3 4
7 6 6 7 7 8 8 8 8 9 10 9 10 11 11 11 11 13 12 12 12 12 12 11 10 10 9 8 7 7 6 7 6 5 4 3 3 3 2 2 2 2 3
7 6 6 7 7 8 8 8 9 9 9 9 10 11 11 12 12 13 12 13 11 11 11 10 9 8 7 7 7 6 6 6 5 5 4 3 2 2 2 1 2 3 3
7 7 7 7 7 8 8 8 8 9 9 9 10 11 11 12 12 12 13 12 11 11 10 9 8 8 7 7 7 7 6 6 5 4 3 2 2 2 2 2 2 3 3
7 7 7 7 7 7 8 8 8 9 10 10 10 10 10 10 11 11 12 11 10 10 10 9 7 7 6 6 7 6 6 5 4 3 3 2 2 2 2 2 2 2 3
7 6 6 7 7 8 9 9 9 9 9 9 10 10 10 9 10 10 10 10 9 9 9 8 7 6 6 5 5 5 4 4 3 2 2 2 2 2 2 3 3 2 3
7 6 7 7 8 8 9 9 9 9 9 9 10 10 10 9 10 10 10 9 9 9 8 8 7 7 6 5 4 4 3 3 3 3 2 2 2 2 3 3 3 3 3
7 7 7 8 8 9 9 9 8 8 9 8 9 9 9 9 10 10 10 9 9 8 8 7 7 7 6 5 4 3 2 3 3 2 2 2 2 2 3 3 3 3 4
8 8 8 8 8 8 9 9 8 8 8 8 8 9 9 8 9 9 9 9 8 8 7 6 6 6 5 4 4 3 3 3 3 2 2 1 1 1 2 3 3 3 4
9 9 8 8 8 8 8 8 8 8 8 7 7 8 8 7 7 7 8 8 7 7 7 6 6 5 4 4 3 3 3 3 2 2 1 1 2 2 3 3 3 4 5
9 9 8 8 7 8 8 8 7 7 7 7 6 6 6 6 7 7 7 7 6 6 6 6 6 5 4 4 4 3 3 3 3 2 2 2 3 4 4 4 4 5 6
9 8 9 8 8 8 7 7 7 7 6 6 6 5 5 5 5 6 6 6 5 5 6 7 6 6 5 4 4 4 3 3 3 4 4 4 4 4 5 5 5 6 6
8 8 8 8 8 7 7 7 6 6 6 6 5 5 4 5 4 5 5 6 5 4 5 6 6 6 5 5 4 4 4 4 4 4 5 5 5 5 5 5 6 6 6
8 8 7 7 7 7 6 6 6 6 5 5 5 4 3 3 4 4 4 4 4 4 3 5 6 6 6 5 5 5 5 5 5 5 5 6 5 5 5 5 5 6 6
8 8 8 8 8 7 7 7 6 6 6 5 4 3 3 3 4 3 4 4 4 4 3 4 6 6 6 5 5 6 6 5 5 5 5 5 6 6 6 6 6 7 7
8 8 7 7 7 7 7 7 6 6 5 5 4 3 3 3 3 3 3 4 4 4 4 5 6 6 6 6 6 6 6 6 5 5 5 6 6 6 7 7 7 7 7
8 7 7 6 6 6 6 6 5 5 5 4 4 3 2 2 2 3 4 4 5 5 5 6 6 6 7 7 7 7 7 6 6 5 6 6 7 7 7 7 8 8 8
7 7 6 6 5 5 5 5 4 4 4 4 3 2 1 1 2 3 3 4 5 5 6 6 7 7 8 8 8 8 7 7 7 7 7 7 7 8 8 9 9 9 10
6 6 5 5 4 4 4 4 3 3 2 2 2 2 2 0 1 2 2 4 4 5 6 7 8 8 9 9 9 9 9 8 8 8 8 8 9 9 10 10 10 10 11
4 5 4 3 3 3 3 3 3 2 1 1 1 2 2 2 1 2 3 4 5 6 7 7 8 9 9 9 9 8 8 9 9 9 9 10 10 11 11 11 11 12 11
3 3 3 2 2 2 2 2 3 2 3 2 2 3 3 3 2 3 3 4 6 7 8 8 8 9 9 9 9 9 9 9 9 10 10 11 11 11 12 12 12 12 12
2 2 2 2 2 3 3 3 3 3 2 2 3 4 4 3 3 4 4 5 5 6 7 8 8 9 9 10 11 11 11 11 11 11 11 12 12 12 13 13 14 13 13
3 2 2 2 3 3 3 3 3 3 3 4 4 5 4 4 4 4 5 5 6 7 8 8 9 10 10 11 11 11 12 12 12 13 13 13 14 14 14 15 14 14 14
4 4 4 4 4 4 4 4 4 4 5 5 5 5 5 5 5 5 6 6 7 7 8 9 9 10 10 10 11 12 12 12 13 13 13 14 14 14 14 14 14 14 15